Weather History for Lancaster, OH

Change the Weather History Date:

Saturday, October 23, 2010

  Actual Average Record
Temperature  
Mean Temperature 52 °F -  
Max Temperature 70 °F 63 °F 85 °F (1947)
Min Temperature 34 °F 38 °F 19 °F (1997)
Degree Days  
Heating Degree Days 13    
Growing Degree Days 2 (Base 50)    
Moisture  
Dew Point 37 °F    
Average Humidity 55    
Maximum Humidity 89    
Minimum Humidity 28    
Precipitation  
Precipitation 0.00 in - - ()
Sea Level Pressure  
Sea Level Pressure 30.16 in    
Wind  
Wind Speed 3 mph (SSE)    
Max Wind Speed 8 mph    
Max Gust Speed -    
Visibility 10 miles    
Events      
Averages and records for this station are not official NWS values.
T = Trace of Precipitation, MM = Missing Value Source: NWS Daily Summary

Daily Weather History Graph

Daily Weather History Graph

Search for Another Location

Airport:

Trip Planner

Search our weather history database for the weather conditions in past years. The results will help you decide how hot, cold, wet, or windy it might be!

Date:

Astronomy

Oct. 23, 2010 Rise Set
Actual Time 7:49 AM EDT 6:39 PM EDT
Civil Twilight 7:21 AM EDT 7:07 PM EDT
Nautical Twilight 6:50 AM EDT 7:38 PM EDT
Astronomical Twilight 6:18 AM EDT 8:10 PM EDT
Moon 6:42 PM EDT (10/23) 8:27 AM EDT (10/23)
Length of Visible Light 11h 45m
Length of Day
10h 50m
Full, 100% of the Moon is Illuminated
Oct 23
Full
Oct 30
Last Quarter
Nov 6
New
Nov 13
First Quarter
Nov 21
Full

Hourly Weather History & Observations

Time (EDT) Temp. Windchill Dew Point Humidity Pressure Visibility Wind Dir Wind Speed Gust Speed Precip Events Conditions
12:53 AM 36.0 °F - 30.9 °F 82% 30.19 in 10.0 mi Calm Calm - N/A   Clear
1:53 AM 34.0 °F - 30.9 °F 89% 30.19 in 10.0 mi Calm Calm - N/A   Clear
2:53 AM 37.0 °F 33.3 °F 32.0 °F 82% 30.18 in 10.0 mi SSE 4.6 mph - N/A   Clear
3:53 AM 37.9 °F 35.5 °F 33.1 °F 83% 30.18 in 10.0 mi SSE 3.5 mph - N/A   Clear
4:53 AM 42.1 °F - 37.0 °F 82% 30.18 in 10.0 mi Calm Calm - N/A   Overcast
5:53 AM 46.9 °F - 36.0 °F 66% 30.17 in 10.0 mi SSE 3.5 mph - N/A   Clear
6:53 AM 43.0 °F 41.3 °F 35.1 °F 74% 30.19 in 10.0 mi SSE 3.5 mph - N/A   Partly Cloudy
7:53 AM 42.1 °F - 34.0 °F 73% 30.19 in 10.0 mi Calm Calm - N/A   Clear
8:53 AM 48.0 °F - 36.0 °F 63% 30.21 in 10.0 mi SE 3.5 mph - N/A   Clear
9:53 AM 57.9 °F - 36.0 °F 44% 30.20 in 10.0 mi Calm Calm - N/A   Clear
10:53 AM 66.0 °F - 34.0 °F 30% 30.21 in 10.0 mi SW 6.9 mph - N/A   Clear
11:53 AM 66.0 °F - 34.0 °F 30% 30.20 in 10.0 mi SSW 8.1 mph - N/A   Clear
12:53 PM 68.0 °F - 34.0 °F 28% 30.19 in 10.0 mi SSW 5.8 mph - N/A   Scattered Clouds
1:53 PM 68.0 °F - 36.0 °F 31% 30.17 in 10.0 mi SW 4.6 mph - N/A   Mostly Cloudy
2:53 PM 70.0 °F - 37.0 °F 30% 30.15 in 10.0 mi South 5.8 mph - N/A   Partly Cloudy
3:53 PM 69.1 °F - 39.9 °F 35% 30.15 in 10.0 mi SSE 3.5 mph - N/A   Overcast
4:53 PM 69.1 °F - 43.0 °F 39% 30.14 in 10.0 mi SSE 4.6 mph - N/A   Partly Cloudy
5:53 PM 68.0 °F - 41.0 °F 37% 30.13 in 10.0 mi SSE 5.8 mph - N/A   Clear
6:53 PM 61.0 °F - 41.0 °F 48% 30.12 in 10.0 mi SE 3.5 mph - N/A   Clear
7:53 PM 60.1 °F - 41.0 °F 49% 30.10 in 10.0 mi South 4.6 mph - N/A   Clear
8:53 PM 55.9 °F - 43.0 °F 62% 30.08 in 10.0 mi SSE 3.5 mph - N/A   Clear
9:53 PM 57.9 °F - 39.0 °F 49% 30.09 in 10.0 mi SSE 3.5 mph - N/A   Clear
10:53 PM 55.0 °F - 39.0 °F 55% 30.08 in 10.0 mi SE 4.6 mph - N/A   Clear
11:53 PM 51.1 °F - 37.9 °F 61% 30.08 in 10.0 mi Calm Calm - N/A   Clear